When you browse on this site, cookies collect data to enhance your experience and personalize the content and advertising you see.
Visit our Privacy Policy to learn more. By continuing to use the site, you agree to this use of cookies and data.
  • In Hungary
  • List of Countries
  • For 7 days
  • Water Temperature
  • Satellite Maps
  • Weather Map
  • News
  • Weather Widgets
  • user-avatar
    Login

    Hourly Weather Lugo

    Today, 21 November, Wednesday

    Time Temperature Precipitation Wind Pressure Humidity
    00:00 +6°C° 0 mm 1 mps 712 mmHg 96%
    01:00 +6°C° 0 mm 1 mps 712 mmHg 96%
    02:00 +6°C° 0 mm 1 mps 712 mmHg 97%
    03:00 +6°C° 0 mm 1 mps 712 mmHg 96%
    04:00 +6°C° 0 mm 1 mps 712 mmHg 96%
    05:00 +6°C° 0 mm 1 mps 713 mmHg 96%
    06:00 +7°C° 0.2 mm 1 mps 713 mmHg 94%
    07:00 +7°C° 0.2 mm 2 mps 713 mmHg 93%
    08:00 +7°C° 0.2 mm 2 mps 713 mmHg 91%
    09:00 +8°C° 0.3 mm 2 mps 714 mmHg 87%
    10:00 +9°C° 0.3 mm 3 mps 714 mmHg 83%
    11:00 +10°C° 0.3 mm 4 mps 714 mmHg 78%
    12:00 +10°C° 0.2 mm 3 mps 714 mmHg 78%
    13:00 +9°C° 0.2 mm 3 mps 714 mmHg 78%
    14:00 +9°C° 0.2 mm 3 mps 714 mmHg 79%
    15:00 +8°C° 0.1 mm 3 mps 715 mmHg 83%
    16:00 +7°C° 0.1 mm 2 mps 715 mmHg 87%
    17:00 +6°C° 0.1 mm 2 mps 715 mmHg 91%
    18:00 +6°C° 0 mm 2 mps 716 mmHg 91%
    19:00 +6°C° 0 mm 2 mps 716 mmHg 91%
    20:00 +6°C° 0 mm 2 mps 716 mmHg 91%
    21:00 +6°C° 0 mm 2 mps 716 mmHg 90%
    22:00 +6°C° 0 mm 2 mps 716 mmHg 90%
    23:00 +6°C° 0 mm 2 mps 717 mmHg 89%

    Tomorrow, 22 November, Thursday

    Time Temperature Precipitation Wind Pressure Humidity
    00:00 +6°C° 0 mm 2 mps 717 mmHg 89%
    01:00 +6°C° 0 mm 2 mps 717 mmHg 89%
    02:00 +6°C° 0 mm 2 mps 717 mmHg 89%
    03:00 +5°C° 0 mm 2 mps 716 mmHg 89%
    04:00 +5°C° 0 mm 2 mps 716 mmHg 89%
    05:00 +5°C° 0 mm 2 mps 716 mmHg 89%
    06:00 +6°C° 0 mm 2 mps 717 mmHg 87%
    07:00 +6°C° 0 mm 2 mps 717 mmHg 85%
    08:00 +7°C° 0 mm 2 mps 717 mmHg 83%
    09:00 +8°C° 0 mm 3 mps 717 mmHg 77%
    10:00 +9°C° 0 mm 3 mps 718 mmHg 72%
    11:00 +10°C° 0 mm 4 mps 718 mmHg 66%
    12:00 +10°C° 0 mm 4 mps 718 mmHg 65%
    13:00 +11°C° 0 mm 4 mps 717 mmHg 64%
    14:00 +11°C° 0 mm 3 mps 717 mmHg 63%
    15:00 +9°C° 0 mm 3 mps 717 mmHg 70%
    16:00 +8°C° 0 mm 2 mps 717 mmHg 76%
    17:00 +7°C° 0 mm 2 mps 717 mmHg 82%
    18:00 +7°C° 0 mm 2 mps 718 mmHg 83%
    19:00 +6°C° 0 mm 2 mps 718 mmHg 85%
    20:00 +6°C° 0 mm 2 mps 718 mmHg 86%
    21:00 +6°C° 0 mm 2 mps 718 mmHg 88%
    22:00 +6°C° 0 mm 2 mps 719 mmHg 90%
    23:00 +6°C° 0 mm 2 mps 719 mmHg 92%

    Day after tomorrow, 23 November, Friday

    Time Temperature Precipitation Wind Pressure Humidity
    00:00 +5°C° 0 mm 2 mps 719 mmHg 93%
    01:00 +5°C° 0 mm 2 mps 719 mmHg 94%
    02:00 +5°C° 0 mm 2 mps 719 mmHg 95%
    03:00 +5°C° 0 mm 2 mps 719 mmHg 95%
    04:00 +5°C° 0 mm 2 mps 719 mmHg 94%
    05:00 +4°C° 0 mm 2 mps 719 mmHg 94%
    06:00 +5°C° 0 mm 2 mps 719 mmHg 91%
    07:00 +6°C° 0 mm 2 mps 719 mmHg 87%
    08:00 +6°C° 0 mm 2 mps 720 mmHg 84%
    09:00 +7°C° 0.1 mm 3 mps 720 mmHg 81%
    10:00 +8°C° 0.1 mm 3 mps 720 mmHg 78%
    11:00 +8°C° 0.1 mm 4 mps 720 mmHg 74%
    12:00 +8°C° 0.2 mm 4 mps 719 mmHg 76%
    13:00 +9°C° 0.2 mm 3 mps 719 mmHg 79%
    14:00 +8°C° 0.2 mm 3 mps 719 mmHg 81%
    15:00 +8°C° 0.1 mm 3 mps 719 mmHg 84%
    16:00 +7°C° 0.1 mm 2 mps 719 mmHg 86%
    17:00 +7°C° 0.1 mm 2 mps 719 mmHg 89%
    18:00 +7°C° 0.1 mm 2 mps 719 mmHg 89%
    19:00 +7°C° 0.1 mm 2 mps 720 mmHg 89%
    20:00 +7°C° 0.1 mm 2 mps 720 mmHg 89%
    21:00 +6°C° 0.1 mm 2 mps 720 mmHg 89%
    22:00 +6°C° 0.1 mm 2 mps 720 mmHg 90%
    23:00 +6°C° 0.1 mm 2 mps 720 mmHg 90%

    24 November, Saturday

    Time Temperature Precipitation Wind Pressure Humidity
    00:00 +6°C° 0.1 mm 2 mps 719 mmHg 90%
    01:00 +6°C° 0.1 mm 2 mps 719 mmHg 91%
    02:00 +6°C° 0.1 mm 2 mps 719 mmHg 91%
    03:00 +6°C° 0.1 mm 2 mps 719 mmHg 91%
    04:00 +6°C° 0.1 mm 2 mps 719 mmHg 91%
    05:00 +7°C° 0.1 mm 2 mps 718 mmHg 91%
    06:00 +7°C° 0 mm 2 mps 718 mmHg 89%
    07:00 +7°C° 0 mm 2 mps 718 mmHg 87%
    08:00 +8°C° 0 mm 2 mps 718 mmHg 86%
    09:00 +9°C° 0 mm 3 mps 718 mmHg 79%
    10:00 +10°C° 0 mm 3 mps 718 mmHg 73%
    11:00 +11°C° 0 mm 4 mps 718 mmHg 67%
    12:00 +11°C° 0 mm 4 mps 717 mmHg 67%
    13:00 +11°C° 0 mm 4 mps 716 mmHg 67%
    14:00 +11°C° 0 mm 4 mps 715 mmHg 67%
    15:00 +10°C° 0.1 mm 3 mps 715 mmHg 72%
    16:00 +9°C° 0.1 mm 3 mps 714 mmHg 77%
    17:00 +8°C° 0.1 mm 3 mps 714 mmHg 82%
    18:00 +9°C° 0.1 mm 3 mps 714 mmHg 83%
    19:00 +9°C° 0.1 mm 3 mps 714 mmHg 84%
    20:00 +9°C° 0.1 mm 3 mps 714 mmHg 85%
    21:00 +9°C° 0.7 mm 2 mps 714 mmHg 88%
    22:00 +9°C° 0.7 mm 2 mps 714 mmHg 91%
    23:00 +9°C° 0.7 mm 2 mps 714 mmHg 94%

    25 November, Sunday

    Time Temperature Precipitation Wind Pressure Humidity
    00:00 +9°C° 0.2 mm 2 mps 714 mmHg 95%
    01:00 +9°C° 0.2 mm 2 mps 714 mmHg 95%
    02:00 +10°C° 0.2 mm 1 mps 715 mmHg 96%
    03:00 +10°C° 0.1 mm 1 mps 715 mmHg 96%
    04:00 +9°C° 0.1 mm 1 mps 716 mmHg 96%
    05:00 +9°C° 0.1 mm 1 mps 716 mmHg 97%
    06:00 +9°C° 0 mm 1 mps 717 mmHg 96%
    07:00 +9°C° 0 mm 1 mps 717 mmHg 95%
    08:00 +9°C° 0 mm 1 mps 717 mmHg 95%
    09:00 +10°C° 0 mm 1 mps 717 mmHg 90%
    10:00 +10°C° 0 mm 2 mps 717 mmHg 86%
    11:00 +12°C° 0 mm 2 mps 718 mmHg 81%
    12:00 +10°C° 0.2 mm 3 mps 717 mmHg 80%
    13:00 +10°C° 0.2 mm 3 mps 717 mmHg 79%
    14:00 +10°C° 0.2 mm 3 mps 716 mmHg 79%
    15:00 +9°C° 0.8 mm 3 mps 716 mmHg 83%
    16:00 +9°C° 0.8 mm 3 mps 716 mmHg 88%
    17:00 +8°C° 0.8 mm 3 mps 716 mmHg 93%
    18:00 +8°C° 0.6 mm 3 mps 717 mmHg 91%
    19:00 +7°C° 0.6 mm 3 mps 718 mmHg 90%
    20:00 +5°C° 0.6 mm 3 mps 719 mmHg 89%
    21:00 +5°C° 0.1 mm 3 mps 719 mmHg 90%
    22:00 +5°C° 0.1 mm 3 mps 720 mmHg 91%
    23:00 +5°C° 0.1 mm 2 mps 720 mmHg 92%

    26 November, Monday

    Time Temperature Precipitation Wind Pressure Humidity
    00:00 +4°C° 0 mm 3 mps 721 mmHg 92%
    01:00 +4°C° 0 mm 3 mps 721 mmHg 92%
    02:00 +4°C° 0 mm 3 mps 721 mmHg 92%
    03:00 +4°C° 0 mm 3 mps 721 mmHg 92%
    04:00 +4°C° 0 mm 3 mps 721 mmHg 92%
    05:00 +4°C° 0 mm 3 mps 721 mmHg 92%
    06:00 +5°C° 0.1 mm 3 mps 721 mmHg 91%
    07:00 +5°C° 0.1 mm 3 mps 721 mmHg 90%
    08:00 +6°C° 0.1 mm 4 mps 721 mmHg 89%
    09:00 +6°C° 0.6 mm 4 mps 721 mmHg 89%
    10:00 +7°C° 0.6 mm 4 mps 720 mmHg 89%
    11:00 +7°C° 0.6 mm 4 mps 720 mmHg 89%
    12:00 +7°C° 2.1 mm 4 mps 720 mmHg 90%
    13:00 +8°C° 2.1 mm 4 mps 719 mmHg 92%
    14:00 +8°C° 2.1 mm 4 mps 719 mmHg 93%
    15:00 +9°C° 1.2 mm 3 mps 719 mmHg 94%
    16:00 +8°C° 1.2 mm 3 mps 719 mmHg 94%
    17:00 +8°C° 1.2 mm 3 mps 719 mmHg 95%
    18:00 +8°C° 0.7 mm 3 mps 719 mmHg 95%
    19:00 +8°C° 0.7 mm 3 mps 719 mmHg 95%
    20:00 +8°C° 0.7 mm 3 mps 719 mmHg 95%
    21:00 +8°C° 1.2 mm 3 mps 719 mmHg 95%
    22:00 +8°C° 1.2 mm 3 mps 719 mmHg 95%
    23:00 +8°C° 1.2 mm 3 mps 719 mmHg 95%
    Show more